Kalamazoo, MI

5:51 PM EST on January 19, 2017 (GMT -0500)
Kalamazoo-Battle Creek International

Weather History for KAZO - June, 2013

Change the Weather History Date:

Wednesday, June 12, 2013

  Actual Average Record
Temperature  
Mean Temperature 73 °F 67 °F  
Max Temperature 82 °F 78 °F 95 °F (1956)
Min Temperature 63 °F 56 °F 40 °F (1985)
Degree Days  
Heating Degree Days 0 2  
Month to date heating degree days 36 34  
Since 1 June heating degree days 36 34  
Since 1 July heating degree days 6308 6402  
Cooling Degree Days 8 4  
Month to date cooling degree days 26 41  
Year to date cooling degree days 106 82  
Since 1 June cooling degree days 26 41  
Growing Degree Days 22 (Base 50)    
Moisture  
Dew Point 66 °F    
Average Humidity 79    
Maximum Humidity 93    
Minimum Humidity 64    
Precipitation  
Precipitation 0.12 in 0.13 in 1.31 in (2004)
Month to date precipitation 0.94 1.60  
Year to date precipitation 16.00 14.04  
Sea Level Pressure  
Sea Level Pressure 29.80 in    
Wind  
Wind Speed 4 mph (ESE)    
Max Wind Speed 28 mph    
Max Gust Speed 38 mph    
Visibility 8 miles    
Events Rain    
T = Trace of Precipitation, MM = Missing Value Source: NWS Daily Summary

Daily Weather History Graph

Daily Weather History Graph

Search for Another Location

Airport or City:

Trip Planner

Search our weather history database for the weather conditions in past years. The results will help you decide how hot, cold, wet, or windy it might be!

Date:

Astronomy

Jun. 12, 2013 Rise Set
Actual Time 6:05 AM EDT 9:19 PM EDT
Civil Twilight 5:30 AM EDT 9:53 PM EDT
Nautical Twilight 4:46 AM EDT 10:38 PM EDT
Astronomical Twilight 3:52 AM EDT 11:32 PM EDT
Moon 9:47 AM EDT (6/12) 11:50 PM EDT (6/12)
Length of Visible Light 16h 22m
Length of Day
15h 13m
Waxing Crescent, 14% of the Moon is Illuminated
Jun 12
Waxing Crescent
Jun 16
First Quarter
Jun 23
Full
Jun 30
Last Quarter
Jul 8
New

Hourly Weather History & Observations

Time (EDT) Temp. Heat Index Dew Point Humidity Pressure Visibility Wind Dir Wind Speed Gust Speed Precip Events Conditions
12:53 AM 64.9 °F - 63.0 °F 93% 29.87 in 9.0 mi Calm Calm - N/A   Clear
1:53 AM 64.9 °F - 63.0 °F 93% 29.87 in 7.0 mi Calm Calm - N/A   Clear
2:53 AM 64.0 °F - 62.1 °F 93% 29.86 in 6.0 mi Calm Calm - N/A   Clear
3:53 AM 64.0 °F - 62.1 °F 93% 29.89 in 5.0 mi North 4.6 mph - N/A   Clear
4:53 AM 64.9 °F - 63.0 °F 93% 29.88 in 7.0 mi Calm Calm - N/A   Clear
5:53 AM 64.9 °F - 63.0 °F 93% 29.88 in 7.0 mi Calm Calm - N/A   Partly Cloudy
6:53 AM 66.0 °F - 64.0 °F 93% 29.90 in 6.0 mi Calm Calm - 0.00 in Rain Light Rain
7:53 AM 68.0 °F - 64.9 °F 90% 29.89 in 5.0 mi Calm Calm - 0.00 in   Mostly Cloudy
8:53 AM 70.0 °F - 64.0 °F 81% 29.89 in 9.0 mi Calm Calm - N/A   Mostly Cloudy
9:53 AM 72.0 °F - 64.0 °F 76% 29.91 in 9.0 mi SSW 5.8 mph - N/A   Overcast
10:53 AM 75.0 °F - 64.0 °F 69% 29.89 in 10.0 mi Variable 3.5 mph - N/A   Mostly Cloudy
11:53 AM 77.0 °F - 64.9 °F 66% 29.86 in 10.0 mi South 10.4 mph 16.1 mph N/A   Partly Cloudy
12:53 PM 78.1 °F - 66.9 °F 68% 29.86 in 10.0 mi South 9.2 mph - N/A   Clear
1:53 PM 79.0 °F - 66.9 °F 66% 29.82 in 10.0 mi Calm Calm - N/A   Clear
2:53 PM 80.1 °F 82.7 °F 68.0 °F 67% 29.79 in 10.0 mi ESE 4.6 mph - N/A   Clear
3:53 PM 80.1 °F 82.9 °F 69.1 °F 69% 29.81 in 10.0 mi Calm Calm - N/A   Clear
4:53 PM 79.0 °F - 69.1 °F 72% 29.81 in 10.0 mi NE 5.8 mph - 0.00 in   Mostly Cloudy
5:53 PM 80.1 °F 82.9 °F 69.1 °F 69% 29.78 in 10.0 mi East 4.6 mph - N/A   Partly Cloudy
6:53 PM 80.1 °F 83.2 °F 70.0 °F 71% 29.75 in 10.0 mi ENE 4.6 mph - N/A   Mostly Cloudy
7:53 PM 78.1 °F - 69.1 °F 74% 29.72 in 5.0 mi East 3.5 mph - N/A   Haze
8:53 PM 75.9 °F - 68.0 °F 76% 29.67 in 5.0 mi ESE 5.8 mph - N/A   Haze
9:53 PM 75.0 °F - 69.1 °F 82% 29.64 in 5.0 mi ESE 3.5 mph - 0.00 in   Haze
10:43 PM 75.2 °F - 69.8 °F 83% 29.63 in 9.0 mi South 8.1 mph 17.3 mph N/A   Scattered Clouds
10:53 PM 73.9 °F - 69.1 °F 85% 29.64 in 10.0 mi South 12.7 mph 21.9 mph N/A   Mostly Cloudy
11:23 PM 69.8 °F - 62.6 °F 78% 29.68 in 8.0 mi WNW 20.7 mph 38.0 mph 0.02 in Rain Light Rain
11:38 PM 66.2 °F - 62.6 °F 88% 29.66 in 10.0 mi NW 20.7 mph 34.5 mph 0.03 in Rain Light Rain
11:53 PM 66.9 °F - 64.0 °F 90% 29.65 in 10.0 mi North 18.4 mph 34.5 mph 0.04 in Rain Light Rain